Weather WX

World > North America > United States > Pennsylvania

Brave, Pennsylvania Regional Weather

Lat: 39.72N, Lon: 80.26W
Wx Zone: PAZ031
Warning FLW WEATHER ALERT - (More Info. Click Here) Warning
Feedback

Brave, PA Regional Weather

Expires:201906242000;;013840
ASUS41 KCTP 241910
RWRCTP

REGIONAL WEATHER ROUNDUP
NATIONAL WEATHER SERVICE STATE COLLEGE PA
300 PM EDT MON JUN 24 2019

Note: "fair" indicates few or no clouds below 12,000 feet with no 
significant weather and/or obstructions to visibility.

* = STATION THAT DOES NOT REPORT PRECIPITATION /E.G. RAIN...SNOW...ETC/
    THUNDER OR FOG.


PAZ002>004-007>009-013>016-020>023-029>032-242000-
WESTERN PENNSYLVANIA
  
CITY           SKY/WX    TMP DP  RH WIND       PRES   REMARKS
ERIE           FAIR      87  68  52 S15G22    29.74F                  
MEADVILLE      FAIR      82  65  56 SW10      29.80F                  
FRANKLIN*      FAIR      82  68  62 SW13G20   29.82F                  
NEW CASTLE     FAIR      82  69  64 VRB6      29.80F                  
BEAVER COUNTY  NOT AVBL                                               
BUTLER*        FAIR      81  67  62 S10       29.82F                  
PITTSBURGH INT PTSUNNY   81  67  62 S9        29.81F                  
PITTSBURGH     PTSUNNY   80  70  71 S10       29.82F                  
INDIANA*       MOSUNNY   82  66  57 W9G17     29.88S                  
LATROBE        PTSUNNY   82  70  65 SW12G23   29.85S                  
WASHINGTON CO* FAIR      82  71  69 S12       29.84F                  
$$


SKY/WX - Weather  TMP - Temperature  DP - Dew Point  RH - Relative Humidity
WIND - Wind Direction/Speed PRES - Barometric Pressure VSB - Visibility
WCI - Wind Chill Index E13G22 Wind - East Wind 13 mph/Gusts of 22 mph